FW2847 Weather Reports


time (UTC)temp
F
wind
direction
speed
knots
gust
knots
rain 1hr
in
rain 24hr
in
rain mn
in
humidity
%
barometer
mb
20260505065804 44 111 0.0 0.0 0.00 0.16 0.00 88 1020.6
20260505065303 44 111 0.0 0.0 0.00 0.16 0.00 88 1020.6
20260505064758 44 111 0.0 0.0 0.00 0.16 0.00 88 1020.6
20260505064300 45 111 0.0 0.0 0.00 0.16 0.00 88 1020.6
20260505064033 45 111 0.0 0.0 0.00 0.16 0.00 88 1020.6
20260505063259 45 111 0.0 0.0 0.00 0.16 0.00 88 1020.6
20260505062757 45 111 0.0 0.0 0.00 0.16 0.00 87 1020.6
20260505062257 45 111 0.0 0.0 0.00 0.16 0.00 87 1020.6
20260505062029 45 111 0.0 0.0 0.00 0.16 0.00 87 1020.6
20260505061255 45 111 0.0 0.0 0.00 0.16 0.00 87 1020.6
20260505060754 45 111 0.0 0.0 0.00 0.16 0.00 87 1020.6
20260505060527 45 111 0.0 0.0 0.00 0.16 0.00 87 1020.6
20260505055755 45 111 0.0 0.0 0.00 0.16 0.16 87 1020.6
20260505055255 44 111 0.0 0.0 0.00 0.16 0.16 87 1020.6
20260505055027 44 111 0.0 0.0 0.00 0.16 0.16 87 1020.6
20260505054255 44 111 0.0 0.0 0.00 0.16 0.16 87 1020.6
20260505053754 44 111 0.0 0.0 0.00 0.16 0.16 87 1020.6
20260505053253 44 275 0.0 0.0 0.00 0.16 0.16 88 1020.6
20260505052754 44 275 0.0 0.0 0.00 0.16 0.16 88 1020.6
20260505052524 44 129 0.0 0.0 0.00 0.16 0.16 87 1020.6
20260505051752 44 129 0.0 0.9 0.00 0.16 0.16 87 1020.6
20260505051253 44 99 0.0 0.9 0.00 0.16 0.16 87 1020.6
20260505050755 44 105 0.0 0.0 0.00 0.16 0.16 87 1020.6
20260505050524 44 110 0.0 0.0 0.00 0.16 0.16 87 1020.6
20260505041749 45 263 0.0 0.9 0.05 0.16 0.16 86 1020.6
20260505041248 45 263 0.0 0.9 0.06 0.16 0.16 86 1020.6
20260505041020 45 270 0.0 0.0 0.07 0.16 0.16 87 1020.6
20260505040248 45 271 0.0 0.0 0.09 0.16 0.16 88 1020.6
20260505035749 45 255 0.0 0.0 0.10 0.16 0.16 88 1020.6
20260505035248 45 254 0.0 0.0 0.12 0.16 0.16 87 1020.6
20260505034748 45 264 0.0 0.0 0.13 0.16 0.16 87 1020.6
20260505034248 45 264 0.0 0.9 0.15 0.16 0.16 86 1020.6
20260505033746 45 274 0.0 1.7 0.15 0.15 0.15 85 1020.6
20260505033247 45 276 0.9 3.5 0.14 0.14 0.15 85 1020.6
20260505032753 45 309 1.7 3.5 0.13 0.13 0.13 85 1020.6
20260505032748 45 284 0.9 3.5 0.14 0.14 0.14 85 1020.6
20260505031746 45 271 1.7 4.3 0.11 0.11 0.12 85 1020.6
20260505031518 45 256 2.6 6.1 0.10 0.10 0.10 84 1020.6
20260505030746 46 289 3.5 7.8 0.08 0.08 0.09 84 1020.6
20260505030244 46 279 5.2 10.4 0.07 0.07 0.08 84 1020.6
20260505025745 46 298 6.1 12.2 0.06 0.06 0.06 84 1020.6
20260505025245 46 300 6.1 12.2 0.04 0.04 0.04 84 1020.6
20260505025015 47 303 6.1 10.4 0.03 0.03 0.03 85 1020.6
20260505024245 47 300 5.2 9.6 0.01 0.01 0.01 83 1020.6
20260505023746 47 316 3.5 7.0 0.00 0.00 0.00 83 1020.6
20260505023244 47 298 2.6 6.1 0.00 0.00 0.00 82 1020.6
20260505022745 47 340 2.6 6.1 0.00 0.00 0.00 81 1020.6
20260505022244 47 299 2.6 6.1 0.00 0.00 0.00 81 1020.6
20260505021746 47 303 3.5 7.0 0.00 0.00 0.00 80 1020.6
20260505021513 48 356 4.3 8.7 0.00 0.00 0.00 78 1020.6
20260505020743 48 55 4.3 8.7 0.00 0.00 0.00 76 1020.6
20260505020242 48 243 4.3 8.7 0.00 0.00 0.00 76 1020.6
20260505020015 49 33 4.3 8.7 0.00 0.00 0.00 75 1020.6
20260505015243 49 6 4.3 8.7 0.00 0.00 0.00 72 1020.6
20260505014742 51 345 3.5 14.8 0.00 0.00 0.00 69 1020.6
20260505014244 52 44 1.7 14.8 0.00 0.00 0.00 62 1020.6
20260505013742 53 23 0.0 1.7 0.00 0.00 0.00 59 1020.6
20260505013242 53 53 0.0 1.7 0.00 0.00 0.00 59 1020.6
20260505012742 53 86 0.0 0.0 0.00 0.00 0.00 59 1020.6
20260505012241 53 86 0.0 0.0 0.00 0.00 0.00 59 1020.6
20260505011741 53 86 0.0 0.9 0.00 0.00 0.00 58 1020.6
20260505011240 54 86 0.0 0.9 0.00 0.00 0.00 57 1020.6
20260505010742 54 104 0.0 0.9 0.00 0.00 0.00 56 1020.6
20260505010239 54 131 0.0 4.3 0.00 0.00 0.00 55 1020.6
20260505010010 55 203 0.9 6.1 0.00 0.00 0.00 54 1020.6
20260505005510 55 347 1.7 6.1 0.00 0.00 0.00 54 1020.6
20260505004736 55 122 0.9 3.5 0.00 0.00 0.00 52 1020.6
20260505004237 55 95 0.9 2.6 0.00 0.00 0.00 51 1020.6
20260505003736 55 93 0.0 1.7 0.00 0.00 0.00 51 1020.6
20260505003235 56 285 0.0 0.0 0.00 0.00 0.00 51 1020.6
20260505002733 56 285 0.0 0.0 0.00 0.00 0.00 51 1020.6
20260505002237 56 285 0.0 0.0 0.00 0.00 0.00 51 1020.6
20260505001735 56 285 0.0 1.7 0.00 0.00 0.00 51 1020.6
20260505001231 56 15 0.9 2.6 0.00 0.00 0.00 52 1020.6
20260505000731 56 328 1.7 4.3 0.00 0.00 0.00 53 1020.6
20260505000230 56 327 1.7 4.3 0.00 0.00 0.00 52 1020.6
20260504235727 56 340 2.6 4.3 0.00 0.00 0.00 53 1020.6
20260504235228 56 325 3.5 5.2 0.00 0.00 0.00 53 1020.6
20260504234729 56 305 3.5 5.2 0.00 0.00 0.00 53 1020.6
20260504234227 56 336 3.5 5.2 0.00 0.00 0.00 52 1020.6
20260504233726 56 299 3.5 5.2 0.00 0.00 0.00 53 1020.6
20260504233226 56 313 3.5 7.8 0.00 0.00 0.00 51 1020.6
20260504232727 56 295 4.3 7.8 0.00 0.00 0.00 52 1020.6
20260504232456 56 295 3.5 7.0 0.00 0.00 0.00 53 1020.6
20260504231726 56 319 3.5 7.0 0.00 0.00 0.00 53 1020.6
20260504231225 56 320 3.5 7.0 0.00 0.00 0.00 54 1020.6
20260504230727 56 314 3.5 5.2 0.00 0.00 0.00 56 1020.6
20260504230228 55 298 2.6 5.2 0.00 0.00 0.00 57 1020.6
20260504225727 55 297 3.5 9.6 0.00 0.00 0.00 55 1020.6
20260504225223 54 308 5.2 10.4 0.00 0.00 0.00 57 1020.6
20260504224724 54 283 6.1 10.4 0.00 0.00 0.00 54 1020.6
20260504224226 55 311 6.1 10.4 0.00 0.00 0.00 61 1020.6
20260504223723 55 337 6.1 10.4 0.00 0.00 0.00 58 1020.6
20260504223223 55 314 5.2 10.4 0.00 0.00 0.00 55 1020.6
20260504222723 56 304 4.3 8.7 0.00 0.00 0.00 52 1020.6
20260504222226 57 335 3.5 7.0 0.00 0.00 0.00 48 1020.6
20260504221954 57 307 3.5 7.0 0.00 0.00 0.00 48 1020.6
20260504221221 57 12 3.5 7.8 0.00 0.00 0.00 48 1020.6
20260504220723 57 350 5.2 11.3 0.00 0.00 0.00 48 1020.6
20260504220221 57 336 7.0 12.2 0.00 0.00 0.00 47 1020.6
20260504215721 58 8 7.8 14.8 0.00 0.00 0.00 44 1020.6
20260504215223 58 58 8.7 15.6 0.00 0.00 0.00 43 1020.6
20260504214721 59 60 9.6 15.6 0.00 0.00 0.00 41 1020.6
20260504214455 59 318 10.4 16.5 0.00 0.00 0.00 40 1020.6
20260504213722 60 35 9.6 17.4 0.00 0.00 0.00 39 1020.6
20260504213222 61 75 8.7 17.4 0.00 0.00 0.00 37 1020.6
20260504212725 62 34 7.8 15.6 0.00 0.00 0.00 37 1020.6
20260504212222 63 8 4.3 13.9 0.00 0.00 0.00 35 1020.6
20260504211721 65 38 3.5 7.8 0.00 0.00 0.00 33 1020.6
20260504211221 66 108 4.3 8.7 0.00 0.00 0.00 33 1020.6
20260504210723 67 86 2.6 8.7 0.00 0.00 0.00 33 1020.6
20260504210223 66 116 1.7 5.2 0.00 0.00 0.00 32 1020.6
20260504205722 66 94 0.9 5.2 0.00 0.00 0.00 33 1020.6
20260504205221 67 103 1.7 4.3 0.00 0.00 0.00 30 1020.6
20260504204723 67 84 1.7 5.2 0.00 0.00 0.00 31 1020.6
20260504204222 66 137 1.7 5.2 0.00 0.00 0.00 32 1020.6
20260504203722 66 229 2.6 7.8 0.00 0.00 0.00 33 1020.6
20260504203222 65 89 1.7 7.8 0.00 0.00 0.00 33 1020.6
20260504202723 65 108 0.9 6.1 0.00 0.00 0.00 35 1020.6
20260504202222 64 281 0.9 6.1 0.00 0.00 0.00 35 1020.6
20260504201722 64 116 1.7 6.1 0.00 0.00 0.00 35 1020.6
20260504201219 65 103 0.9 5.2 0.00 0.00 0.00 35 1020.6
20260504200719 64 106 0.9 4.3 0.00 0.00 0.00 38 1020.6
20260504200221 62 242 0.9 5.2 0.00 0.00 0.00 39 1020.6
20260504195721 62 259 0.9 5.2 0.00 0.00 0.00 41 1020.6
20260504195219 62 96 0.9 5.2 0.00 0.00 0.00 39 1020.6
20260504194721 61 191 0.9 5.2 0.00 0.00 0.00 40 1020.6
20260504194220 61 238 1.7 5.2 0.00 0.00 0.00 40 1020.6
20260504193721 61 110 2.6 9.6 0.00 0.00 0.00 39 1020.6
20260504193220 62 110 3.5 10.4 0.00 0.00 0.00 37 1020.6
20260504192719 63 268 2.6 10.4 0.00 0.00 0.00 36 1020.6
20260504192219 65 78 2.6 7.8 0.00 0.00 0.00 32 1020.6
20260504191950 67 83 1.7 5.2 0.00 0.00 0.00 27 1020.6
20260504191220 68 95 1.7 6.1 0.00 0.00 0.00 25 1020.6
20260504190721 67 280 3.5 11.3 0.00 0.00 0.00 26 1020.6
20260504190448 67 312 5.2 11.3 0.00 0.00 0.00 25 1020.6
20260504185719 68 301 6.1 13.9 0.00 0.00 0.00 25 1020.6
20260504185219 69 282 5.2 13.9 0.00 0.00 0.00 24 1020.6
20260504184718 69 297 6.1 11.3 0.00 0.00 0.00 25 1020.6
20260504184216 71 309 6.1 11.3 0.00 0.00 0.00 23 1020.6
20260504183717 71 295 5.2 11.3 0.00 0.00 0.00 22 1020.6
20260504183214 71 267 7.0 13.0 0.00 0.00 0.00 21 1020.6
20260504182713 71 279 7.8 13.9 0.00 0.00 0.00 23 1020.6
20260504182213 70 300 7.0 13.9 0.00 0.00 0.00 23 1020.6
20260504181712 70 276 7.0 13.0 0.00 0.00 0.00 21 1020.6
20260504181213 70 319 7.8 13.9 0.00 0.00 0.00 25 1020.6
20260504180711 69 334 9.6 14.8 0.00 0.00 0.00 24 1020.6
20260504180442 69 328 9.6 14.8 0.00 0.00 0.00 25 1020.6
20260504175711 69 305 9.6 14.8 0.00 0.00 0.00 26 1020.6
20260504175210 69 299 10.4 14.8 0.00 0.00 0.00 26 1020.6
20260504174711 69 307 8.7 13.9 0.00 0.00 0.00 25 1020.6
20260504174209 69 294 8.7 13.9 0.00 0.00 0.00 27 1020.6
20260504173710 68 290 7.8 13.0 0.00 0.00 0.00 27 1020.6
20260504173207 68 295 7.8 13.0 0.00 0.00 0.00 26 1020.6
20260504172710 67 289 7.0 12.2 0.00 0.00 0.00 27 1020.6
20260504172208 67 309 7.8 13.0 0.00 0.00 0.00 27 1020.6
20260504171708 67 312 7.8 13.0 0.00 0.00 0.00 26 1020.6
20260504171207 67 304 7.8 13.9 0.00 0.00 0.00 28 1020.6
20260504170709 66 283 8.7 13.9 0.00 0.00 0.00 28 1020.6
20260504170208 66 311 8.7 14.8 0.00 0.00 0.00 29 1020.6
20260504160208 62 290 3.5 10.4 0.00 0.00 0.00 30 1020.6
20260504160204 62 300 3.5 10.4 0.00 0.00 0.00 31 1020.6
20260504150703 62 280 3.5 7.8 0.00 0.00 0.00 30 1020.6
20260504150201 62 295 4.3 8.7 0.00 0.00 0.00 30 1020.6
20260504141158 60 286 1.7 6.1 0.00 0.00 0.00 30 1020.6
20260504140701 60 287 0.9 6.1 0.00 0.00 0.00 29 1020.6
20260504140206 59 265 1.7 5.2 0.00 0.00 0.00 27 1020.6
20260504140201 59 336 0.9 4.3 0.00 0.00 0.00 29 1020.6
20260504130656 58 296 3.5 7.0 0.00 0.00 0.00 26 1020.6
20260504130157 57 295 3.5 7.0 0.00 0.00 0.00 26 1020.6
20260504120156 57 299 3.5 7.0 0.00 0.00 0.00 24 1020.6
20260504110655 52 269 0.0 0.0 0.00 0.00 0.00 28 1020.6
20260504110202 53 271 0.0 0.9 0.00 0.00 0.00 29 1020.6
20260504110156 53 269 0.0 0.9 0.00 0.00 0.00 28 1020.6
20260504100424 50 290 0.0 0.0 0.00 0.00 0.00 38 1020.6
20260504081655 52 222 0.0 0.0 0.00 0.00 0.00 36 1020.6
20260504081154 52 96 0.0 0.0 0.00 0.00 0.00 36 1020.6
20260504080653 52 110 0.0 0.0 0.00 0.00 0.00 35 1020.6
20260504080152 53 108 0.0 2.6 0.00 0.00 0.00 35 1020.6
20260504070149 52 306 3.5 5.2 0.00 0.00 0.00 38 1020.6